Weather in Torgo

Russia / Sakha (Yakutia) Republic     58°27′01″N   119°30′09″E
temp.,
°C
wind,
m/s
gust,
m/s
humid.,
%
clouds,
%
prec.,
mm/h
press.,
hPa
HPBL,
m
27 february, sat
sat2700:00−21nw1185100 0.0 102220
03:00−20n1299100 0.3 102037
06:00−21wnw2299100 0.8 1021103
09:00−21wnw4997100 1.4 1022640
12:00−19nw6992100 0.6 10231074
15:00−19nw71089100 0.9 10231357
18:00−21nw61091100 0.2 10261005
21:00−23wnw61286100 0.3 1028700
28 february, sun
sun2800:00−25w4984100 0.0 1030225
03:00−26w238799 0.0 103129
06:00−26w41093100 0.1 1033290
09:00−27w7148098 0.1 1035529
12:00−23wnw9127196 0.0 10351592
15:00−23wnw8117598 0.0 10351657
18:00−24w51184100 0.0 1036689
21:00−26wsw3488100 0.1 103768
1 march, mon
mon100:00−27w358299 0.0 1037106
03:00−27wsw3382100 0.0 103738
06:00−27wsw2287100 0.0 103623
09:00−26wsw239099 0.0 1036106
12:00−23wnw6870100 0.0 10331349
15:00−22wnw4669100 0.0 10311520
18:00−24wnw0176100 0.0 103020
21:00−28sse0197100 0.1 103019
2 march, tue
tue200:00−29s1288100 0.0 102923
03:00−32se118292 0.0 102722
06:00−32e118195 0.0 102620
09:00−31e118798 0.0 102425
12:00−26ene2290100 0.0 1021246
15:00−22ene3386100 0.0 1019441
18:00−24ne2394100 0.0 101838
21:00−30nw119898 0.0 102019
3 march, wed
wed300:00−30nw1198100 0.0 102019
03:00−30nw1198100 0.0 102019
06:00−30nw1198100 0.0 102019
09:00−29nw1197100 0.1 102267
12:00−26nw2388100 0.1 1021512
15:00−24nnw3388100 0.2 1021654
18:00−26nnw2494100 0.1 1023228
21:00−28wnw3498100 0.2 102671